Date,TemperatureHighF,TemperatureAvgF,TemperatureLowF,DewpointHighF,DewpointAvgF,DewpointLowF,HumidityHigh,HumidityAvg,HumidityLow,PressureMaxIn,PressureMinIn,WindSpeedMaxMPH,WindSpeedAvgMPH,GustSpeedMaxMPH,PrecipitationSumIn
2013-3-1,41.0,38.6,37.0,37.0,33.0,30.0,95,80,65,0.00,40.00,16,10,20,0.00
2013-3-2,38.0,36.0,34.0,30.0,27.2,26.0,74,69,65,0.00,40.00,18,14,22,0.00
2013-3-3,35.0,32.6,30.0,26.0,23.3,21.0,74,68,59,0.00,40.00,20,16,25,0.00
2013-3-4,39.0,34.0,30.0,27.0,23.0,20.0,69,64,56,0.00,40.00,27,21,38,0.00
2013-3-5,40.0,36.1,33.0,33.0,28.0,24.0,83,71,63,0.00,40.00,25,11,31,0.00
2013-3-6,40.0,38.1,37.0,35.0,33.2,31.0,91,82,73,0.00,40.00,31,23,47,0.00
2013-3-7,38.0,35.3,33.0,33.0,31.4,29.0,98,85,69,0.00,40.00,31,24,40,0.00
2013-3-8,40.0,34.6,32.0,37.0,31.7,27.0,100,90,60,0.00,40.00,22,18,27,0.00
2013-3-9,47.0,39.8,37.0,35.0,28.6,26.0,90,64,45,0.00,40.00,22,12,29,0.00
2013-3-10,39.0,36.7,35.0,35.0,32.3,30.0,90,83,76,0.00,40.00,11,8,16,0.00
2013-3-11,43.0,39.1,36.0,41.0,37.2,34.0,96,92,86,0.00,40.00,11,5,13,0.00
2013-3-12,49.0,44.7,40.0,49.0,43.3,39.0,100,95,88,0.00,40.00,27,14,34,0.00
2013-3-13,43.0,40.2,38.0,41.0,33.4,30.0,100,76,60,0.00,40.00,16,11,22,0.00
2013-3-14,41.0,34.1,30.0,32.0,20.5,13.0,76,57,47,0.00,40.00,27,20,34,0.00
2013-3-15,40.0,34.6,30.0,33.0,20.4,12.0,75,56,45,0.00,40.00,22,17,29,0.00
2013-3-16,40.0,34.8,31.0,31.0,23.9,13.0,92,65,40,0.00,40.00,22,11,29,0.00
2013-3-17,36.0,33.6,30.0,30.0,17.7,11.0,84,53,36,0.00,40.00,20,15,25,0.00
2013-3-18,36.0,30.9,27.0,32.0,15.5,9.0,93,53,38,0.00,40.00,27,17,31,0.00
2013-3-19,38.0,36.5,34.0,36.0,34.6,31.0,97,92,86,0.00,40.00,31,22,43,0.00
2013-3-20,40.0,36.5,34.0,33.0,25.5,20.0,88,64,51,0.00,40.00,27,17,34,0.00
2013-3-21,39.0,33.5,30.0,32.0,25.6,18.0,90,72,55,0.00,40.00,16,10,22,0.00
2013-3-22,39.0,34.4,31.0,26.0,20.4,15.0,63,56,47,0.00,40.00,25,18,29,0.00
2013-3-23,42.0,38.0,35.0,27.0,24.9,21.0,65,59,48,0.00,40.00,22,20,29,0.00
2013-3-24,40.0,37.6,35.0,32.0,26.0,21.0,77,63,50,0.00,40.00,20,13,27,0.00
2013-3-25,42.0,38.5,36.0,33.0,30.8,26.0,87,73,52,0.00,40.00,25,17,31,0.00
2013-3-26,44.0,39.9,38.0,35.0,31.0,28.0,83,70,53,0.00,40.00,18,10,25,0.00
2013-3-27,46.0,40.4,37.0,33.0,30.1,26.0,75,66,51,0.00,40.00,18,12,22,0.00
2013-3-28,43.0,40.8,39.0,36.0,33.4,31.0,84,74,65,0.00,40.00,16,10,18,0.00
2013-3-29,45.0,42.1,40.0,36.0,33.9,32.0,87,72,59,0.00,40.00,16,11,20,0.00
2013-3-30,46.0,41.6,39.0,36.0,33.9,32.0,83,74,59,0.00,40.00,13,10,16,0.00
2013-3-31,47.0,42.1,38.0,41.0,35.9,-99.9,95,82,55,0.00,40.00,18,6,22,0.00